Regional Weather Roundup
Issued by NWS

Home | Current Version | Previous Version | Text Only | Print | Product List | Glossary Off
Versions: 1 2 3 4 5 6 7 8 9 10 11 12 13 14 15 16 17 18 19 20 21 22 23 24 25 26 27 28 29 30 31 32 33 34 35 36 37 38 39 40 41 42 43 44 45 46 47 48 49 50

000
ASUS45 KCYS 260610
RWRWY

WYOMING REGIONAL WEATHER ROUNDUP
NATIONAL WEATHER SERVICE CHEYENNE WY
1100 PM MST TUE NOV 25 2014

NOTE:  "FAIR" INDICATES FEW OR NO CLOUDS BELOW 12,000 FEET
WITH NO SIGNIFICANT WEATHER AND/OR OBSTRUCTIONS TO VISIBILITY.

WYZ001-260700-
YELLOWSTONE NATIONAL PARK

CITY           SKY/WX    TMP DP  RH WIND       PRES   REMARKS
LK YELLOWSTONE   N/A     30  26  85 CALM      30.08R
6HR MIN TEMP:  28; 6HR MAX TEMP:  30; 6HR PCP:  0.05;

W YELLOWSTONE  NOT AVBL

$$
WYZ002>013-054>058-071-098>099-260700-
NORTHERN WYOMING

CITY           SKY/WX    TMP DP  RH WIND       PRES   REMARKS
JACKSON        CLOUDY    37  36  93 SW14G21   30.07R WCI  29
CODY           CLOUDY    25  21  86 CALM      30.14S
GREYBULL       CLOUDY    29  25  85 W17       30.15R WCI  17
6HR MIN TEMP:  29; 6HR MAX TEMP:  32; 6HR PCP: TRACE;

WORLAND        LGT SNOW  28  27  96 W7        30.16S FOG     WCI  21
6HR MIN TEMP:  28; 6HR MAX TEMP:  32; 6HR PCP:  0.05;

SHERIDAN       CLOUDY    29  22  75 NW18      30.14R WCI  16
6HR MIN TEMP:  29; 6HR MAX TEMP:  31; 6HR PCP:  0.02;

BUFFALO        LGT SNOW  26  22  84 NW12      30.11S FOG     WCI  16
6HR MIN TEMP:  26; 6HR MAX TEMP:  28; 6HR PCP: TRACE;

GILLETTE       CLOUDY    27  24  89 NW20      30.09R WCI  13
6HR MIN TEMP:  27; 6HR MAX TEMP:  29; 6HR PCP:  0.01;

HULETT           N/A    N/A N/A N/A MISG        N/A
NEWCASTLE      CLOUDY    28  23  80 NW20G26   30.07R WCI  15

$$
WYZ014>020-022>026-101>103-260700-
CENTRAL WYOMING

CITY           SKY/WX    TMP DP  RH WIND       PRES   REMARKS
BIG PINEY      CLOUDY   N/A N/A N/A N5        30.10R
PINEDALE       FLURRIES  32  32 100 W3        30.11S
DUBOIS         LGT SNOW  28  27  93 SE15G22   30.03R WCI  17
LANDER         LGT SNOW  30  28  92 CALM      30.10R FOG
6HR MIN TEMP:  29; 6HR MAX TEMP:  42; 6HR PCP:  0.01;

RIVERTON       LGT SNOW  27  24  89 N3        30.12R FOG
6HR MIN TEMP:  26; 6HR MAX TEMP:  32; 6HR PCP:  0.05;

CASPER         LGT SNOW  24  21  88 E3        30.14S FOG
6HR MIN TEMP:  24; 6HR MAX TEMP:  30; 6HR PCP:  0.10;

DOUGLAS        CLOUDY   N/A N/A N/A NW18      30.12R
                                      6HR PCP: TRACE;


$$
WYZ021-027>030-104>119-260700-
SOUTHERN WYOMING

CITY           SKY/WX    TMP DP  RH WIND       PRES   REMARKS
EVANSTON       CLOUDY    37  31  78 W24G32    30.24S WCI  26
6HR MIN TEMP:  31; 6HR MAX TEMP:  37; 6HR PCP: TRACE;

FORT BRIDGER   CLOUDY    37  35  90 W23G36    30.23R WCI  26
ROCK SPRINGS   CLOUDY    36  31  82 W30G44    30.12S WCI  23
6HR MIN TEMP:  34; 6HR MAX TEMP:  36;

DIXON          CLOUDY    36  28  72 SW13G20   30.17F WCI  27
RAWLINS        LGT RAIN  34  30  85 W21G30    30.06R FOG     WCI  22
6HR MIN TEMP:  33; 6HR MAX TEMP:  35; 6HR PCP: TRACE;

SARATOGA       CLOUDY    36  32  87 W26G33    30.08S WCI  23
LARAMIE        LGT SNOW  23  21  92 N10       30.01F FOG     WCI  12
6HR MIN TEMP:  23; 6HR MAX TEMP:  36; 6HR PCP:  0.01;

CHEYENNE       FLURRIES  24  18  77 N23G35    30.06R WCI   9
6HR MIN TEMP:  24; 6HR MAX TEMP:  40; 6HR PCP:  0.08;

TORRINGTON     CLOUDY    30  23  75 NW22G32   30.07R WCI  17
6HR MIN TEMP:  30; 6HR MAX TEMP:  34; 6HR PCP:  0.02;

PINE BLUFFS    FLURRIES  28  23  80 N21G28    30.07R WCI  15

$$



USA.gov is the U.S. government's official web portal to all federal, state and local government web resources and services.